Location: Unspecified
(40.7945°N, 111.1337°W)
Time: 09:01:08
(UTC-06:00)

Altair - Pass Details

Date: 25 June 2019
Orbit: 1501 x 1683 km, 47.2° (Epoch: 19 August)

Event Time Altitude Azimuth Distance (km) Brightness Sun altitude
Rises 03:47:07 0° 297° (WNW) 4,863 10.1 -18.1°
Reaches altitude 10° 03:50:33 10° 289° (WNW) 3,895 9.5 -17.7°
Maximum altitude 03:59:16 36° 228° (SW) 2,446 8.0 -16.7°
Drops below altitude 10° 04:08:06 10° 167° (SSE) 3,931 9.3 -15.7°
Sets 04:11:37 0° 159° (SSE) 4,913 9.9 -15.3°
